Tracking 25703 objects as of 2-Jul-2022
HD Live streaming from Space Station
objects crossing your sky now

ZHEDA PIXING 3A

Track ZHEDA PIXING 3A now!
10-day predictions


NORAD ID: 45795
Int'l Code: 2020-039B
Perigee: 480.6 km
Apogee: 499.7 km
Inclination: 97.4 °
Period: 94.3 minutes
Semi major axis: 6861 km
RCS: Unknown
Launch date: June 17, 2020
Source: People's Republic of China (PRC)
Launch site: Jiuquan Satellite Launch Center, China (JSC)
aabbcc
Your satellite tracking list
Your tracking list is empty




NASA's NSSDC Master Catalog

Two Line Element Set (TLE):
1 45795U 20039B   22183.57377608  .00003265  00000-0  12349-3 0  9991
2 45795  97.3961 303.3757 0013930 155.3986 260.2715 15.27586752113565
Source of the keplerian elements: AFSPC